Theta_e
310 310 309 309 309 310 310 310 310 310 311 311 310 310 311 311 311 306 304 305 301 299 302 305 309 309 310 310 306 308 310 309 311 307 305 307 304 307 306 309 308 307 305 302 301 301 300 313 314 312 318 316 324 323
309 309 309 309 309 309 309 309 310 310 310 310 310 309 309 310 311 308 301 305 305 298 300 302 306 308 309 310 308 310 309 308 311 310 308 309 306 306 307 303 308 306 310 308 308 308 314 316 317 319 317 319 324 324
309 309 309 309 309 309 309 309 309 309 310 310 309 309 309 309 310 309 303 304 301 295 297 299 304 308 309 307 310 306 309 312 311 313 311 310 307 310 305 305 309 311 311 312 310 315 313 316 319 319 319 320 323 325
308 309 309 309 309 309 309 309 309 310 310 310 309 309 309 309 309 309 303 303 299 297 291 297 305 303 308 307 305 308 309 312 311 311 308 307 306 311 309 309 308 312 312 313 313 315 316 318 319 320 319 320 320 321
308 308 308 308 308 308 308 309 309 309 309 310 309 309 309 309 309 305 303 304 304 298 292 295 301 304 306 307 306 305 305 306 306 305 304 304 309 309 311 309 308 312 312 310 310 320 320 319 320 320 319 320 321 320
307 307 308 308 308 308 309 308 309 309 309 309 309 309 309 309 308 302 297 304 305 304 296 290 301 301 305 309 309 307 304 304 306 305 305 308 311 309 305 305 312 316 316 316 316 317 320 320 322 322 321 321 321 322
307 307 307 308 308 308 308 308 308 308 308 309 309 309 309 309 307 299 296 303 304 303 296 291 293 301 305 306 308 308 307 305 304 303 303 306 308 308 306 303 311 313 316 318 318 318 317 318 320 322 322 322 319 323
307 307 307 308 308 308 308 308 308 308 308 308 309 309 308 306 306 301 305 307 306 298 297 290 292 297 303 300 297 306 300 306 305 304 306 303 306 306 302 309 312 314 315 316 317 317 317 320 322 321 322 320 319 319
307 307 307 307 308 308 308 308 308 308 308 308 307 305 304 303 300 301 306 309 307 299 293 292 292 290 301 297 299 300 303 296 306 302 303 304 302 300 305 309 312 313 313 314 316 318 318 318 319 320 319 319 319 319
307 307 307 308 308 308 308 308 308 308 308 305 302 299 295 302 306 306 302 299 297 297 296 292 297 291 297 296 295 295 298 295 293 297 307 301 301 308 311 314 316 315 315 316 314 315 316 316 317 319 319 320 321 320
307 307 308 308 308 308 308 308 308 307 303 300 296 295 301 304 302 299 294 294 295 291 295 295 295 293 300 292 292 297 295 297 293 294 296 294 297 307 312 314 316 318 318 317 318 320 320 319 318 319 319 321 321 321
307 307 308 308 307 308 308 308 307 304 302 301 300 302 302 297 295 290 290 292 292 289 295 295 297 298 297 300 295 297 293 295 289 299 297 292 301 310 312 313 315 317 316 316 317 318 319 320 321 320 320 319 321 323
307 308 308 308 307 308 308 307 307 307 306 303 299 294 292 291 284 284 281 287 288 295 297 296 293 296 298 297 294 293 291 291 300 293 290 295 307 309 310 312 315 317 318 317 316 318 320 320 321 320 320 321 323 323
308 308 308 308 308 308 307 307 307 306 302 295 290 282 286 284 286 289 290 292 296 296 296 295 293 294 297 292 293 290 291 295 289 288 291 303 306 307 308 311 312 315 318 319 318 319 319 319 319 320 321 324 323 322
308 308 308 306 307 308 307 307 305 304 299 291 290 282 285 290 291 292 293 293 295 296 294 293 294 294 292 289 289 290 289 288 290 291 301 304 304 305 307 308 310 314 317 319 319 318 318 318 319 320 323 324 324 324
307 306 305 307 307 307 307 306 304 301 298 292 290 286 290 288 289 291 291 291 296 296 297 296 291 289 286 286 286 287 287 288 291 297 302 304 304 305 306 309 311 314 317 318 319 318 319 320 321 322 323 324 323 321
306 302 304 308 307 306 306 303 301 295 292 290 287 291 291 290 289 290 292 292 296 293 290 291 286 286 288 285 285 286 286 290 295 300 303 304 304 305 308 310 312 316 318 318 319 320 320 323 323 323 320 321 321 319
303 303 305 306 306 304 303 302 297 293 288 290 287 290 291 292 291 292 293 295 293 293 293 290 292 286 286 285 288 291 293 297 301 301 302 305 305 307 309 310 316 315 316 318 320 321 319 319 321 322 321 319 316 316
304 304 304 306 305 301 296 296 296 288 289 292 293 293 292 292 294 294 294 295 295 296 294 293 289 287 288 291 291 294 296 297 299 301 303 306 307 308 309 310 320 316 317 320 321 318 319 321 322 322 319 316 314 317
307 307 308 307 305 297 293 294 297 291 287 291 292 291 292 292 295 295 294 295 294 294 291 290 291 294 296 299 302 300 299 301 301 300 302 304 306 307 308 316 317 317 319 318 318 315 319 320 321 320 317 317 317 317
303 304 305 306 302 299 295 294 293 293 292 291 295 294 292 293 291 292 293 296 292 292 292 295 297 299 303 302 303 304 303 303 302 303 303 302 306 308 310 316 318 318 317 317 317 315 318 319 318 318 318 319 320 320
302 304 304 303 297 297 294 297 294 295 292 293 293 294 290 289 291 294 296 293 293 296 297 298 299 299 300 300 302 304 305 304 305 305 304 305 305 306 307 310 317 316 317 319 320 319 319 319 319 320 321 320 319 322
302 302 300 298 293 290 290 296 291 293 289 291 292 289 289 291 294 297 294 297 297 300 299 301 301 300 299 301 304 307 306 304 304 305 306 306 306 308 310 313 320 317 318 319 321 319 318 312 317 321 321 322 322 320
302 296 293 292 291 288 293 290 293 291 292 291 289 288 290 291 295 295 293 297 299 299 302 303 304 299 302 304 303 305 304 305 306 307 307 306 304 307 315 319 322 320 318 319 320 321 322 321 313 321 322 320 320 318
291 290 291 286 293 290 289 288 288 289 288 290 289 289 291 293 290 292 292 295 299 302 303 304 304 304 300 301 304 304 307 307 305 304 307 307 309 319 318 319 320 323 323 321 320 320 320 321 321 319 316 314 315 316
285 290 287 289 289 287 288 286 288 288 290 290 291 294 293 290 288 289 294 298 300 302 302 302 302 302 304 304 303 304 307 310 308 305 307 308 308 316 318 318 317 319 325 322 320 319 318 318 314 314 314 313 304 316
286 287 290 293 292 292 291 292 293 291 289 289 293 292 289 285 286 292 299 300 300 304 305 305 304 304 305 306 306 308 310 309 307 307 310 309 311 315 319 320 319 320 325 324 322 321 319 316 316 316 316 318 319 318
291 291 288 290 290 292 289 289 289 290 292 296 296 291 287 289 291 299 300 305 307 306 306 308 308 307 307 307 307 307 308 308 311 312 312 316 320 321 320 320 322 308 325 325 325 324 323 322 320 318 318 318 318 320
290 292 291 288 289 290 290 290 291 294 298 297 294 294 296 299 303 304 305 307 310 307 306 308 309 312 312 311 308 307 309 309 312 307 307 311 315 319 325 326 327 327 325 322 303 314 323 320 321 321 321 320 320 320
290 294 290 290 288 289 293 295 295 298 299 300 300 299 299 302 306 310 310 309 307 308 310 310 311 311 311 310 310 310 309 309 308 307 305 306 309 319 326 326 326 327 324 324 322 319 303 317 314 322 320 320 320 319
296 295 292 292 292 296 298 300 301 301 301 301 302 299 298 302 308 313 312 312 312 312 311 311 313 314 311 310 309 309 309 311 310 310 310 309 309 318 325 324 324 323 323 323 323 323 322 321 322 322 320 319 319 316
295 293 292 291 294 300 300 298 299 300 303 302 301 301 303 303 303 311 314 313 312 312 308 311 312 312 315 315 313 313 301 312 315 314 315 316 315 318 326 325 323 324 323 324 323 322 322 321 322 322 321 321 321 321
294 294 295 294 294 295 300 300 300 299 301 302 302 305 307 307 305 313 315 315 315 314 313 314 315 316 317 318 318 317 309 319 313 301 302 304 304 313 323 326 325 324 323 323 321 322 322 323 323 323 323 321 321 321
Wind_Speed
10 11 12 12 13 14 14 15 15 16 16 17 17 17 18 18 18 7 2 7 4 3 8 4 4 3 2 1 3 5 6 4 3 5 4 6 6 8 7 7 8 11 8 5 4 7 9 9 9 10 6 1 18 18
10 10 11 12 13 14 14 14 15 15 16 16 16 16 16 16 16 8 3 4 3 5 6 4 9 10 8 9 4 4 5 3 2 3 2 2 4 3 5 13 2 8 8 5 9 5 0 10 5 2 4 3 10 18
10 11 12 12 13 14 14 14 14 15 15 16 16 16 15 15 15 11 5 4 3 3 6 4 1 3 7 11 13 6 3 4 3 2 3 2 6 2 5 6 5 5 3 5 5 7 8 10 10 9 6 9 10 14
11 11 12 13 13 14 14 14 15 15 15 15 15 15 14 14 14 11 4 1 2 2 5 3 4 6 7 10 11 14 17 5 2 2 3 4 4 3 2 3 4 1 9 8 4 4 5 8 11 8 7 7 12 12
11 11 13 13 13 14 14 14 15 15 16 15 15 15 14 13 12 5 1 1 2 3 4 8 15 3 9 8 10 12 13 12 8 5 6 7 4 6 5 2 5 5 5 7 6 5 3 2 6 8 10 13 13 13
11 11 12 13 13 15 14 14 15 16 16 16 16 15 14 11 7 3 1 3 2 2 4 6 5 6 10 13 9 10 9 9 6 5 5 6 8 5 7 11 15 15 10 5 1 3 4 3 3 8 10 12 13 13
11 12 13 14 14 15 15 15 16 16 17 18 18 17 15 10 3 3 2 3 4 2 2 6 6 4 9 7 3 3 1 4 6 6 8 9 5 6 12 17 6 8 15 18 12 8 8 7 6 11 10 12 10 10
12 12 13 14 15 15 15 16 16 16 18 19 19 18 15 3 1 3 2 6 4 0 1 4 6 5 6 5 5 5 4 3 5 5 3 10 9 9 13 13 15 19 18 16 10 13 16 12 7 8 11 14 15 13
12 12 13 13 14 15 15 15 15 17 18 20 20 10 1 1 1 2 5 9 3 2 2 3 4 5 8 5 4 4 3 5 2 6 6 7 10 13 9 14 15 19 21 19 22 15 14 10 9 13 16 17 17 14
12 12 13 13 14 14 14 14 15 17 18 15 4 2 0 1 11 8 3 3 2 3 3 4 2 5 6 7 4 5 3 4 5 5 5 9 15 16 15 12 15 19 20 18 22 21 16 11 11 15 19 19 18 17
12 13 13 13 13 14 13 13 14 14 7 4 5 3 4 8 2 1 2 3 3 3 4 3 4 4 1 5 4 4 4 4 5 6 7 8 13 12 19 19 18 17 13 16 20 20 21 19 14 15 14 14 14 16
13 13 13 13 13 13 13 11 9 3 1 3 5 5 3 3 1 2 1 2 3 2 3 3 2 3 4 3 4 5 5 5 9 4 5 10 9 1 6 13 22 24 22 16 16 20 17 16 16 17 17 16 15 15
12 12 12 13 13 14 13 9 8 8 4 1 2 3 1 2 2 3 3 3 3 2 1 1 5 3 3 4 5 4 7 8 4 6 12 13 4 7 8 9 9 7 9 13 14 18 14 13 14 17 16 15 17 15
12 12 12 12 13 10 7 5 6 2 1 2 2 5 3 3 4 3 3 2 2 3 5 7 5 4 5 4 5 6 7 7 8 11 16 4 6 11 12 11 10 10 8 11 13 13 12 14 14 15 16 17 18 16
11 11 12 7 8 8 6 4 2 1 1 2 2 5 6 4 4 4 4 6 6 5 6 5 5 5 5 7 5 5 7 8 7 6 3 7 10 11 12 13 12 12 11 11 11 12 13 15 15 16 16 17 17 16
10 8 1 8 7 6 1 2 0 1 2 3 4 5 5 7 7 2 4 7 3 2 4 4 5 5 5 3 4 6 6 3 7 9 10 10 11 12 12 13 13 14 15 13 13 14 15 17 17 18 18 15 15 16
6 3 5 8 5 3 2 1 1 3 3 4 5 6 9 10 10 8 4 4 2 4 3 3 5 5 4 4 4 3 3 8 14 11 9 12 13 12 12 14 15 16 15 14 13 15 15 16 18 18 18 15 15 14
3 3 6 7 3 3 1 2 2 3 6 7 6 5 5 7 10 10 6 5 3 3 3 4 4 5 5 5 3 5 10 12 9 10 10 12 13 14 11 12 15 11 7 12 14 17 18 20 18 14 18 16 15 14
5 6 7 8 3 2 2 2 1 4 6 5 6 6 5 7 10 11 10 8 7 5 4 4 8 5 5 6 9 11 11 13 11 13 11 11 10 12 10 12 8 4 9 14 16 13 13 17 15 13 13 12 12 11
11 12 12 7 4 1 3 2 1 4 5 3 4 4 4 7 9 9 9 7 5 3 6 6 7 9 8 8 7 8 9 9 10 13 11 9 7 9 9 4 7 10 11 12 12 14 14 12 11 12 12 12 12 12
4 3 2 4 3 4 3 2 4 4 4 5 4 3 5 4 6 6 6 1 4 5 5 8 11 10 9 10 8 7 8 7 10 10 10 9 7 5 2 7 9 8 10 10 10 9 11 12 11 11 12 11 10 9
2 4 1 3 3 3 4 3 4 3 4 5 5 3 4 4 4 3 1 5 4 3 4 7 10 10 10 11 8 7 5 10 11 10 11 8 6 6 9 6 8 9 8 9 9 11 11 10 11 10 10 9 9 8
1 2 2 3 4 3 3 1 4 3 4 3 3 4 3 4 3 3 4 3 4 3 5 8 11 10 9 9 8 6 4 10 8 9 8 6 9 10 8 5 5 9 9 10 11 12 11 12 11 10 9 9 8 6
3 3 3 2 5 4 2 4 3 3 3 3 2 4 3 3 4 4 4 3 3 2 7 10 9 7 4 6 4 3 6 5 6 6 8 7 7 7 3 5 4 9 11 10 11 11 11 10 10 9 9 9 8 8
3 4 3 5 3 3 4 3 4 3 4 3 3 3 2 3 3 4 3 3 4 6 7 8 7 7 5 5 4 4 5 4 7 6 4 5 8 7 8 6 8 7 9 11 10 11 9 8 9 9 9 9 10 10
5 5 6 4 3 5 4 4 4 5 3 4 4 2 1 2 3 5 3 3 2 5 7 8 8 8 7 4 5 3 4 5 8 9 7 8 7 4 11 10 9 6 4 9 10 10 10 10 11 13 11 11 11 11
4 5 4 2 3 3 4 5 6 5 5 4 3 1 1 3 4 4 3 3 3 6 7 7 6 6 7 6 4 4 3 4 6 7 9 8 5 6 6 7 7 2 2 9 9 10 12 13 12 12 10 8 8 8
4 3 5 4 4 4 5 4 4 5 5 4 3 4 3 4 5 4 5 3 5 8 8 7 6 6 6 4 3 5 7 7 5 1 1 3 4 5 6 4 5 8 5 5 8 8 9 10 10 10 10 9 7 7
4 2 2 5 5 5 6 7 5 4 3 4 3 3 5 5 3 5 8 7 5 4 6 5 4 3 3 2 1 1 1 3 5 11 12 6 3 5 5 4 4 4 4 7 9 7 9 8 8 9 10 8 8 6
4 5 4 4 5 7 6 8 6 4 2 3 3 6 9 10 7 6 4 2 3 3 3 3 4 3 1 2 2 1 1 3 3 2 3 2 2 2 3 4 5 5 5 8 8 8 8 9 8 7 7 7 7 7
2 3 4 5 5 5 8 8 7 8 8 7 7 8 7 5 4 2 2 2 1 1 2 3 2 1 2 3 2 3 2 1 4 1 1 4 4 3 3 3 5 4 5 6 6 6 7 7 6 7 8 9 10 7
4 6 3 5 4 2 3 4 2 3 2 2 2 3 3 3 3 2 2 2 1 2 3 3 3 3 3 3 3 4 5 4 3 0 2 4 5 5 5 4 4 3 4 3 3 5 7 7 6 8 9 10 9 9
3 3 4 3 3 4 2 2 3 2 3 3 3 2 2 2 2 0 2 5 3 3 3 4 4 4 5 5 4 5 4 3 5 3 2 3 4 6 5 5 4 3 4 5 6 7 7 7 6 6 7 6 5 4
Wind_Direction
352 351 350 350 351 351 353 354 355 355 356 357 1 2 4 4 11 15 3 13 5 303 281 251 272 276 269 266 289 13 311 188 241 228 229 212 232 208 221 227 187 191 179 186 167 214 243 156 144 198 198 137 179 180
346 345 346 347 350 350 350 349 349 350 352 355 357 358 360 359 4 18 332 352 341 238 286 308 278 284 263 265 274 230 301 294 306 262 223 253 229 208 233 232 169 209 212 192 209 211 72 200 267 242 298 202 187 184
340 340 342 342 343 343 344 344 345 346 347 347 349 351 353 353 354 2 321 321 283 284 274 275 265 349 240 240 237 253 227 265 240 343 317 308 260 211 220 219 219 217 163 202 168 192 222 239 258 255 240 228 192 184
338 337 335 335 335 334 335 336 336 337 337 339 340 341 343 344 346 353 321 352 283 293 287 291 336 298 308 281 260 244 258 267 357 299 261 267 263 205 250 338 257 278 160 172 230 260 272 236 234 235 202 178 159 154
329 334 333 331 331 330 329 331 332 331 331 332 332 333 336 340 337 340 260 221 232 332 308 293 307 287 289 285 271 240 238 239 241 241 228 236 248 251 241 267 236 195 178 198 221 194 207 179 176 182 177 174 170 157
329 328 330 329 332 332 331 330 329 329 328 326 323 323 324 327 342 318 214 90 187 301 302 298 340 292 305 312 284 244 224 219 217 218 223 226 241 245 243 241 233 240 239 241 278 356 291 71 191 190 187 183 179 174
325 326 327 328 330 329 330 330 328 327 326 322 318 316 312 299 230 245 335 80 149 349 257 287 291 286 311 323 318 336 232 199 220 225 226 244 233 231 248 247 259 253 247 254 248 238 250 228 224 192 199 188 170 171
323 321 321 325 327 326 325 323 323 322 320 318 314 312 312 328 161 239 279 229 203 155 239 283 283 284 4 16 325 351 303 233 209 228 215 226 229 233 251 243 234 245 266 272 260 227 245 271 259 196 180 163 165 169
324 326 326 324 322 322 323 322 323 323 319 316 317 319 166 69 128 88 287 265 189 245 267 222 297 313 351 2 306 296 300 266 241 233 222 210 212 225 224 221 218 221 226 232 243 239 228 223 222 192 176 177 174 169
325 324 321 320 322 323 324 325 326 324 319 325 351 347 31 71 309 304 159 197 169 182 219 246 273 279 334 352 311 304 276 273 269 233 223 228 238 237 228 232 221 231 233 224 229 226 219 218 193 188 189 183 182 172
320 318 318 319 320 323 322 321 327 333 344 4 1 323 306 312 290 276 252 240 145 215 204 239 258 281 334 303 295 268 296 267 260 244 239 243 245 231 223 225 229 242 235 233 228 231 224 222 196 187 193 191 171 160
316 314 314 316 315 315 318 321 332 352 307 313 302 285 278 294 264 265 285 294 234 285 175 211 232 230 271 248 249 241 249 248 248 283 254 254 264 191 336 255 232 233 240 238 241 230 223 212 197 187 183 175 168 151
314 312 308 309 315 314 305 302 310 301 314 291 245 264 331 298 306 200 245 222 248 246 180 234 311 269 229 235 249 263 247 243 254 230 252 266 18 336 322 313 300 283 246 245 237 231 206 201 191 183 173 162 148 142
308 309 307 308 309 307 327 286 302 340 357 304 335 305 233 235 245 251 284 300 322 283 303 307 288 245 219 245 233 238 240 274 244 244 240 197 341 326 313 305 308 292 267 244 221 203 188 178 174 165 160 149 143 142
310 310 314 317 319 313 317 302 125 22 267 262 229 243 232 252 259 268 284 285 273 281 288 288 253 236 227 227 231 240 241 232 242 281 267 17 332 302 300 298 299 289 276 245 217 186 172 161 155 148 146 142 135 136
315 320 264 337 328 325 104 109 32 266 238 247 238 256 256 274 280 277 281 273 300 272 291 238 259 256 242 247 256 247 269 286 335 325 317 313 295 287 290 292 281 280 270 249 204 172 160 155 154 144 137 134 134 137
311 244 302 323 318 308 232 282 254 234 254 239 242 237 254 269 274 278 257 270 268 299 262 276 252 243 287 249 251 232 270 286 296 299 300 291 291 285 282 282 276 273 257 216 184 158 150 142 138 134 133 138 135 137
250 269 304 335 332 298 241 228 271 259 245 235 246 259 238 260 277 277 262 251 219 227 222 229 270 235 228 260 259 261 281 291 292 298 294 298 297 296 282 286 285 266 189 173 157 145 141 140 136 130 130 133 132 141
257 268 278 288 269 306 288 222 226 269 255 268 255 249 249 271 270 265 270 270 242 229 273 236 236 221 223 211 255 279 305 312 309 311 299 295 283 286 290 286 241 135 139 142 141 141 139 136 132 132 132 141 140 145
280 274 267 258 189 262 266 234 241 262 271 297 268 255 267 275 291 287 284 268 210 213 214 224 239 255 257 261 249 273 287 297 300 306 304 304 295 301 288 217 121 121 113 106 106 114 110 113 119 130 140 139 140 147
313 284 301 165 189 214 263 266 244 242 267 262 293 277 281 288 284 287 283 157 191 218 235 244 266 273 272 271 277 278 286 288 302 297 301 298 298 293 266 110 112 111 112 101 96 100 112 122 129 130 134 136 140 140
260 267 220 195 227 230 254 222 272 298 261 277 304 273 275 282 280 267 319 231 243 244 235 281 292 301 292 286 297 278 279 300 302 303 309 313 323 353 30 34 94 86 90 112 121 118 117 120 126 126 126 126 128 131
285 218 232 221 235 242 248 184 246 236 271 291 304 284 280 278 276 327 256 249 271 261 282 297 307 299 285 293 294 289 311 317 325 340 351 357 347 357 3 33 93 120 119 110 115 115 114 113 111 119 121 124 125 124
164 229 222 236 203 260 212 232 230 265 268 260 258 267 260 274 305 250 260 266 274 325 306 329 328 317 297 285 301 335 317 322 320 338 343 338 309 277 215 91 98 102 106 111 111 115 119 116 120 122 128 130 138 136
231 227 214 233 230 241 253 237 218 241 254 249 252 262 264 291 271 269 277 294 324 321 334 341 334 344 302 296 345 346 325 310 310 307 334 5 9 78 83 80 81 84 113 109 109 110 113 116 123 129 129 127 128 131
243 213 202 212 220 219 220 250 219 224 260 264 249 232 236 274 271 261 267 273 277 303 322 332 329 325 324 324 336 339 304 333 337 346 347 8 10 46 108 101 104 68 55 106 111 112 118 125 127 126 122 120 118 121
245 237 212 259 290 263 261 255 262 259 237 251 259 223 231 257 254 256 283 258 248 300 310 308 294 289 296 308 302 281 326 331 313 299 303 320 0 20 39 74 79 61 86 118 121 120 122 129 130 126 124 118 111 119
238 232 215 183 210 237 264 277 251 230 220 217 240 222 236 233 252 228 217 241 273 299 298 291 280 267 272 287 296 328 331 349 342 6 181 319 353 29 42 30 35 78 50 89 113 114 116 126 137 142 135 123 122 121
229 208 220 219 208 226 226 218 238 227 216 187 215 244 237 216 246 266 282 282 261 263 284 297 302 283 226 197 356 32 290 327 10 29 49 60 42 41 14 49 93 91 99 108 57 74 113 122 133 135 133 139 143 151
233 178 218 211 214 227 230 205 230 234 209 222 241 281 291 282 280 293 281 255 233 244 278 298 314 315 316 66 33 9 176 158 208 252 67 61 349 59 78 87 122 114 116 116 112 107 103 111 111 113 128 143 160 163
251 187 221 229 250 239 234 247 265 273 272 261 248 245 260 294 298 272 294 296 294 340 311 329 334 301 331 345 9 334 23 159 282 321 47 326 345 61 103 115 123 146 134 122 139 158 155 158 154 149 155 167 171 185
208 206 202 253 262 246 279 213 243 266 260 243 231 196 223 236 269 266 208 193 210 226 226 234 257 293 305 299 288 270 255 303 338 346 283 183 177 174 177 160 151 126 93 90 139 150 162 163 158 163 164 171 182 195
244 211 201 254 268 274 232 256 223 232 227 242 238 234 229 267 336 130 184 219 233 239 248 262 277 283 278 286 285 295 295 307 309 339 269 246 169 166 164 161 144 123 95 81 118 128 122 122 128 141 152 165 176 169